Year,Month,Day,Hour,Minute,Value (Times are PST for temperature in C)
2014,08,25,00,00,14.80
2014,08,25,00,01,14.80
2014,08,25,00,02,14.80
2014,08,25,00,03,14.80
2014,08,25,00,04,14.80
2014,08,25,00,05,14.80
2014,08,25,00,06,14.80
2014,08,25,00,07,14.80
2014,08,25,00,08,14.80
2014,08,25,00,09,14.80
2014,08,25,00,10,14.80
2014,08,25,00,11,14.80
2014,08,25,00,12,14.80
2014,08,25,00,13,14.90
2014,08,25,00,14,14.90
2014,08,25,00,15,14.90
2014,08,25,00,16,14.90
2014,08,25,00,17,14.90
2014,08,25,00,18,14.90
2014,08,25,00,19,14.90
2014,08,25,00,20,14.90
2014,08,25,00,21,14.90
2014,08,25,00,22,14.90
2014,08,25,00,23,14.90
2014,08,25,00,24,14.90
2014,08,25,00,25,14.90
2014,08,25,00,26,14.90
2014,08,25,00,27,14.90
2014,08,25,00,28,14.90
2014,08,25,00,29,14.90
2014,08,25,00,30,14.90
2014,08,25,00,31,14.80
2014,08,25,00,32,14.80
2014,08,25,00,33,14.80
2014,08,25,00,34,14.80
2014,08,25,00,35,14.80
2014,08,25,00,36,14.80
2014,08,25,00,37,14.80
2014,08,25,00,38,14.80
2014,08,25,00,39,14.80
2014,08,25,00,40,14.80
2014,08,25,00,41,14.80
2014,08,25,00,42,14.80
2014,08,25,00,43,14.80
2014,08,25,00,44,14.80
2014,08,25,00,45,14.70
2014,08,25,00,46,14.70
2014,08,25,00,47,14.70
2014,08,25,00,48,14.70
2014,08,25,00,49,14.70
2014,08,25,00,50,14.70
2014,08,25,00,51,14.70
2014,08,25,00,52,14.70
2014,08,25,00,53,14.70
2014,08,25,00,54,14.80
2014,08,25,00,55,14.80
2014,08,25,00,56,14.80
2014,08,25,00,57,14.80
2014,08,25,00,58,14.80
2014,08,25,00,59,14.80
2014,08,25,01,00,14.80
2014,08,25,01,01,14.80
2014,08,25,01,02,14.80
2014,08,25,01,03,14.80
2014,08,25,01,04,14.80
2014,08,25,01,05,14.80
2014,08,25,01,06,14.80
2014,08,25,01,07,14.80
2014,08,25,01,08,14.80
2014,08,25,01,09,14.80
2014,08,25,01,10,14.80
2014,08,25,01,11,14.80
2014,08,25,01,12,14.80
2014,08,25,01,13,14.80
2014,08,25,01,14,14.80
2014,08,25,01,15,14.70
2014,08,25,01,16,14.70
2014,08,25,01,17,14.70
2014,08,25,01,18,14.60
2014,08,25,01,19,14.60
2014,08,25,01,20,14.60
2014,08,25,01,21,14.60
2014,08,25,01,22,14.50
2014,08,25,01,23,14.50
2014,08,25,01,24,14.50
2014,08,25,01,25,14.50
2014,08,25,01,26,14.50
2014,08,25,01,27,14.50
2014,08,25,01,28,14.50
2014,08,25,01,29,14.50
2014,08,25,01,30,14.50
2014,08,25,01,31,14.50
2014,08,25,01,32,14.60
2014,08,25,01,33,14.60
2014,08,25,01,34,14.60
2014,08,25,01,35,14.60
2014,08,25,01,36,14.60
2014,08,25,01,37,14.60
2014,08,25,01,38,14.60
2014,08,25,01,39,14.60
2014,08,25,01,40,14.60
2014,08,25,01,41,14.60
2014,08,25,01,42,14.60
2014,08,25,01,43,14.60
2014,08,25,01,44,14.60
2014,08,25,01,45,14.60
2014,08,25,01,46,14.60
2014,08,25,01,47,14.60
2014,08,25,01,48,14.70
2014,08,25,01,49,14.60
2014,08,25,01,50,14.70
2014,08,25,01,51,14.60
2014,08,25,01,52,14.60
2014,08,25,01,53,14.60
2014,08,25,01,54,14.60
2014,08,25,01,55,14.60
2014,08,25,01,56,14.60
2014,08,25,01,57,14.60
2014,08,25,01,58,14.60
2014,08,25,01,59,14.60
2014,08,25,02,00,14.60
2014,08,25,02,01,14.60
2014,08,25,02,02,14.60
2014,08,25,02,03,14.60
2014,08,25,02,04,14.50
2014,08,25,02,05,14.50
2014,08,25,02,06,14.50
2014,08,25,02,07,14.40
2014,08,25,02,08,14.40
2014,08,25,02,09,14.40
2014,08,25,02,10,14.40
2014,08,25,02,11,14.40
2014,08,25,02,12,14.40
2014,08,25,02,13,14.30
2014,08,25,02,14,14.30
2014,08,25,02,15,14.30
2014,08,25,02,16,14.30
2014,08,25,02,17,14.30
2014,08,25,02,18,14.20
2014,08,25,02,19,14.20
2014,08,25,02,20,14.20
2014,08,25,02,21,14.20
2014,08,25,02,22,14.20
2014,08,25,02,23,14.20
2014,08,25,02,24,14.20
2014,08,25,02,25,14.30
2014,08,25,02,26,14.30
2014,08,25,02,27,14.30
2014,08,25,02,28,14.30
2014,08,25,02,29,14.30
2014,08,25,02,30,14.30
2014,08,25,02,31,14.30
2014,08,25,02,32,14.30
2014,08,25,02,33,14.30
2014,08,25,02,34,14.30
2014,08,25,02,35,14.30
2014,08,25,02,36,14.30
2014,08,25,02,37,14.30
2014,08,25,02,38,14.20
2014,08,25,02,39,14.20
2014,08,25,02,40,14.20
2014,08,25,02,41,14.20
2014,08,25,02,42,14.10
2014,08,25,02,43,14.10
2014,08,25,02,44,14.00
2014,08,25,02,45,14.00
2014,08,25,02,46,14.00
2014,08,25,02,47,13.90
2014,08,25,02,48,13.90
2014,08,25,02,49,13.90
2014,08,25,02,50,13.90
2014,08,25,02,51,13.90
2014,08,25,02,52,13.90
2014,08,25,02,53,13.80
2014,08,25,02,54,13.80
2014,08,25,02,55,13.80
2014,08,25,02,56,13.90
2014,08,25,02,57,14.00
2014,08,25,02,58,14.00
2014,08,25,02,59,14.10
2014,08,25,03,00,14.20
2014,08,25,03,01,14.30
2014,08,25,03,02,14.30
2014,08,25,03,03,14.30
2014,08,25,03,04,14.40
2014,08,25,03,05,14.40
2014,08,25,03,06,14.40
2014,08,25,03,07,14.40
2014,08,25,03,08,14.40
2014,08,25,03,09,14.40
2014,08,25,03,10,14.40
2014,08,25,03,11,14.40
2014,08,25,03,12,14.40
2014,08,25,03,13,14.40
2014,08,25,03,14,14.40
2014,08,25,03,15,14.40
2014,08,25,03,16,14.40
2014,08,25,03,17,14.40
2014,08,25,03,18,14.30
2014,08,25,03,19,14.30
2014,08,25,03,20,14.30
2014,08,25,03,21,14.30
2014,08,25,03,22,14.30
2014,08,25,03,23,14.30
2014,08,25,03,24,14.30
2014,08,25,03,25,14.20
2014,08,25,03,26,14.20
2014,08,25,03,27,14.20
2014,08,25,03,28,14.20
2014,08,25,03,29,14.20
2014,08,25,03,30,14.20
2014,08,25,03,31,14.20
2014,08,25,03,32,14.10
2014,08,25,03,33,14.10
2014,08,25,03,34,14.10
2014,08,25,03,35,14.10
2014,08,25,03,36,14.10
2014,08,25,03,37,14.10
2014,08,25,03,38,14.10
2014,08,25,03,39,14.10
2014,08,25,03,40,14.10
2014,08,25,03,41,14.10
2014,08,25,03,42,14.10
2014,08,25,03,43,14.10
2014,08,25,03,44,14.10
2014,08,25,03,45,14.10
2014,08,25,03,46,14.10
2014,08,25,03,47,14.10
2014,08,25,03,48,14.10
2014,08,25,03,49,14.10
2014,08,25,03,50,14.10
2014,08,25,03,51,14.10
2014,08,25,03,52,14.10
2014,08,25,03,53,14.10
2014,08,25,03,54,14.10
2014,08,25,03,55,14.10
2014,08,25,03,56,14.10
2014,08,25,03,57,14.00
2014,08,25,03,58,14.00
2014,08,25,03,59,14.00
2014,08,25,04,00,14.00
2014,08,25,04,01,14.00
2014,08,25,04,02,14.00
2014,08,25,04,03,14.00
2014,08,25,04,04,14.00
2014,08,25,04,05,13.90
2014,08,25,04,06,13.90
2014,08,25,04,07,13.90
2014,08,25,04,08,13.90
2014,08,25,04,09,13.90
2014,08,25,04,10,13.90
2014,08,25,04,11,13.90
2014,08,25,04,12,13.90
2014,08,25,04,13,13.90
2014,08,25,04,14,13.90
2014,08,25,04,15,13.90
2014,08,25,04,16,13.90
2014,08,25,04,17,13.80
2014,08,25,04,18,13.80
2014,08,25,04,19,13.80
2014,08,25,04,20,13.80
2014,08,25,04,21,13.80
2014,08,25,04,22,13.80
2014,08,25,04,23,13.80
2014,08,25,04,24,13.80
2014,08,25,04,25,13.80
2014,08,25,04,26,13.90
2014,08,25,04,27,13.90
2014,08,25,04,28,13.90
2014,08,25,04,29,13.90
2014,08,25,04,30,14.00
2014,08,25,04,31,14.00
2014,08,25,04,32,14.00
2014,08,25,04,33,14.00
2014,08,25,04,34,14.00
2014,08,25,04,35,14.00
2014,08,25,04,36,14.00
2014,08,25,04,37,13.90
2014,08,25,04,38,13.90
2014,08,25,04,39,13.90
2014,08,25,04,40,13.90
2014,08,25,04,41,13.90
2014,08,25,04,42,13.90
2014,08,25,04,43,13.90
2014,08,25,04,44,13.80
2014,08,25,04,45,13.80
2014,08,25,04,46,13.80
2014,08,25,04,47,13.80
2014,08,25,04,48,13.80
2014,08,25,04,49,13.80
2014,08,25,04,50,13.80
2014,08,25,04,51,13.80
2014,08,25,04,52,13.70
2014,08,25,04,53,13.70
2014,08,25,04,54,13.70
2014,08,25,04,55,13.60
2014,08,25,04,56,13.50
2014,08,25,04,57,13.50
2014,08,25,04,58,13.40
2014,08,25,04,59,13.40
2014,08,25,05,00,13.30
2014,08,25,05,01,13.30
2014,08,25,05,02,13.30
2014,08,25,05,03,13.30
2014,08,25,05,04,13.30
2014,08,25,05,05,13.20
2014,08,25,05,06,13.20
2014,08,25,05,07,13.20
2014,08,25,05,08,13.20
2014,08,25,05,09,13.20
2014,08,25,05,10,13.20
2014,08,25,05,11,13.20
2014,08,25,05,12,13.20
2014,08,25,05,13,13.20
2014,08,25,05,14,13.20
2014,08,25,05,15,13.20
2014,08,25,05,16,13.20
2014,08,25,05,17,13.20
2014,08,25,05,18,13.20
2014,08,25,05,19,13.20
2014,08,25,05,20,13.20
2014,08,25,05,21,13.20
2014,08,25,05,22,13.10
2014,08,25,05,23,13.10
2014,08,25,05,24,13.10
2014,08,25,05,25,13.10
2014,08,25,05,26,13.10
2014,08,25,05,27,13.10
2014,08,25,05,28,13.10
2014,08,25,05,29,13.10
2014,08,25,05,30,13.10
2014,08,25,05,31,13.10
2014,08,25,05,32,13.10
2014,08,25,05,33,13.10
2014,08,25,05,34,13.10
2014,08,25,05,35,13.10
2014,08,25,05,36,13.10
2014,08,25,05,37,13.10
2014,08,25,05,38,13.10
2014,08,25,05,39,13.10
2014,08,25,05,40,13.10
2014,08,25,05,41,13.10
2014,08,25,05,42,13.10
2014,08,25,05,43,13.10
2014,08,25,05,44,13.10
2014,08,25,05,45,13.10
2014,08,25,05,46,13.10
2014,08,25,05,47,13.10
2014,08,25,05,48,13.10
2014,08,25,05,49,13.10
2014,08,25,05,50,13.10
2014,08,25,05,51,13.10
2014,08,25,05,52,13.10
2014,08,25,05,53,13.10
2014,08,25,05,54,13.10
2014,08,25,05,55,13.10
2014,08,25,05,56,13.10
2014,08,25,05,57,13.00
2014,08,25,05,58,13.00
2014,08,25,05,59,13.00
2014,08,25,06,00,13.00
2014,08,25,06,01,13.00
2014,08,25,06,02,13.00
2014,08,25,06,03,13.00
2014,08,25,06,04,13.00
2014,08,25,06,05,13.00
2014,08,25,06,06,13.00
2014,08,25,06,07,12.90
2014,08,25,06,08,13.00
2014,08,25,06,09,13.00
2014,08,25,06,10,13.00
2014,08,25,06,11,13.10
2014,08,25,06,12,13.10
2014,08,25,06,13,13.10
2014,08,25,06,14,13.10
2014,08,25,06,15,13.10
2014,08,25,06,16,13.20
2014,08,25,06,17,13.20
2014,08,25,06,18,13.20
2014,08,25,06,19,13.20
2014,08,25,06,20,13.20
2014,08,25,06,21,13.20
2014,08,25,06,22,13.20
2014,08,25,06,23,13.20
2014,08,25,06,24,13.10
2014,08,25,06,25,13.10
2014,08,25,06,26,13.10
2014,08,25,06,27,13.00
2014,08,25,06,28,13.00
2014,08,25,06,29,12.90
2014,08,25,06,30,12.90
2014,08,25,06,31,12.80
2014,08,25,06,32,12.80
2014,08,25,06,33,12.80
2014,08,25,06,34,12.80
2014,08,25,06,35,12.80
2014,08,25,06,36,12.70
2014,08,25,06,37,12.70
2014,08,25,06,38,12.70
2014,08,25,06,39,12.70
2014,08,25,06,40,12.60
2014,08,25,06,41,12.60
2014,08,25,06,42,12.60
2014,08,25,06,43,12.50
2014,08,25,06,44,12.50
2014,08,25,06,45,12.50
2014,08,25,06,46,12.50
2014,08,25,06,47,12.60
2014,08,25,06,48,12.60
2014,08,25,06,49,12.60
2014,08,25,06,50,12.70
2014,08,25,06,51,12.70
2014,08,25,06,52,12.80
2014,08,25,06,53,12.80
2014,08,25,06,54,12.80
2014,08,25,06,55,12.80
2014,08,25,06,56,12.80
2014,08,25,06,57,12.80
2014,08,25,06,58,12.80
2014,08,25,06,59,12.80
2014,08,25,07,00,12.80
2014,08,25,07,01,12.80
2014,08,25,07,02,12.80
2014,08,25,07,03,12.80
2014,08,25,07,04,12.80
2014,08,25,07,05,12.90
2014,08,25,07,06,12.90
2014,08,25,07,07,13.00
2014,08,25,07,08,13.00
2014,08,25,07,09,13.10
2014,08,25,07,10,13.10
2014,08,25,07,11,13.10
2014,08,25,07,12,13.10
2014,08,25,07,13,13.20
2014,08,25,07,14,13.20
2014,08,25,07,15,13.20
2014,08,25,07,16,13.20
2014,08,25,07,17,13.20
2014,08,25,07,18,13.20
2014,08,25,07,19,13.30
2014,08,25,07,20,13.30
2014,08,25,07,21,13.30
2014,08,25,07,22,13.30
2014,08,25,07,23,13.30
2014,08,25,07,24,13.30
2014,08,25,07,25,13.30
2014,08,25,07,26,13.40
2014,08,25,07,27,13.40
2014,08,25,07,28,13.50
2014,08,25,07,29,13.50
2014,08,25,07,30,13.60
2014,08,25,07,31,13.60
2014,08,25,07,32,13.70
2014,08,25,07,33,13.70
2014,08,25,07,34,13.80
2014,08,25,07,35,13.80
2014,08,25,07,36,13.90
2014,08,25,07,37,13.90
2014,08,25,07,38,14.00
2014,08,25,07,39,14.10
2014,08,25,07,40,14.10
2014,08,25,07,41,14.20
2014,08,25,07,42,14.30
2014,08,25,07,43,14.30
2014,08,25,07,44,14.30
2014,08,25,07,45,14.30
2014,08,25,07,46,14.40
2014,08,25,07,47,14.40
2014,08,25,07,48,14.40
2014,08,25,07,49,14.40
2014,08,25,07,50,14.50
2014,08,25,07,51,14.50
2014,08,25,07,52,14.60
2014,08,25,07,53,14.60
2014,08,25,07,54,14.70
2014,08,25,07,55,14.70
2014,08,25,07,56,14.80
2014,08,25,07,57,14.80
2014,08,25,07,58,14.90
2014,08,25,07,59,14.90
2014,08,25,08,00,15.00
2014,08,25,08,01,15.00
2014,08,25,08,02,15.10
2014,08,25,08,03,15.10
2014,08,25,08,04,15.10
2014,08,25,08,05,15.20
2014,08,25,08,06,15.20
2014,08,25,08,07,15.30
2014,08,25,08,08,15.30
2014,08,25,08,09,15.40
2014,08,25,08,10,15.50
2014,08,25,08,11,15.50
2014,08,25,08,12,15.60
2014,08,25,08,13,15.60
2014,08,25,08,14,15.70
2014,08,25,08,15,15.70
2014,08,25,08,16,15.80
2014,08,25,08,17,15.80
2014,08,25,08,18,15.90
2014,08,25,08,19,15.90
2014,08,25,08,20,16.00
2014,08,25,08,21,16.00
2014,08,25,08,22,16.10
2014,08,25,08,23,16.10
2014,08,25,08,24,16.10
2014,08,25,08,25,16.20
2014,08,25,08,26,16.20
2014,08,25,08,27,16.20
2014,08,25,08,28,16.20
2014,08,25,08,29,16.20
2014,08,25,08,30,16.20
2014,08,25,08,31,16.20
2014,08,25,08,32,16.20
2014,08,25,08,33,16.20
2014,08,25,08,34,16.20
2014,08,25,08,35,16.20
2014,08,25,08,36,16.20
2014,08,25,08,37,16.20
2014,08,25,08,38,16.20
2014,08,25,08,39,16.20
2014,08,25,08,40,16.20
2014,08,25,08,41,16.20
2014,08,25,08,42,16.20
2014,08,25,08,43,16.20
2014,08,25,08,44,16.20
2014,08,25,08,45,16.20
2014,08,25,08,46,16.20
2014,08,25,08,47,16.30
2014,08,25,08,48,16.30
2014,08,25,08,49,16.30
2014,08,25,08,50,16.30
2014,08,25,08,51,16.30
2014,08,25,08,52,16.30
2014,08,25,08,53,16.30
2014,08,25,08,54,16.40
2014,08,25,08,55,16.40
2014,08,25,08,56,16.40
2014,08,25,08,57,16.50
2014,08,25,08,58,16.50
2014,08,25,08,59,16.60
2014,08,25,09,00,16.60
2014,08,25,09,01,16.60
2014,08,25,09,02,16.70
2014,08,25,09,03,16.70
2014,08,25,09,04,16.80
2014,08,25,09,05,16.80
2014,08,25,09,06,16.80
2014,08,25,09,07,16.90
2014,08,25,09,08,16.90
2014,08,25,09,09,17.00
2014,08,25,09,10,17.00
2014,08,25,09,11,17.10
2014,08,25,09,12,17.20
2014,08,25,09,13,17.20
2014,08,25,09,14,17.30
2014,08,25,09,15,17.30
2014,08,25,09,16,17.40
2014,08,25,09,17,17.40
2014,08,25,09,18,17.50
2014,08,25,09,19,17.50
2014,08,25,09,20,17.60
2014,08,25,09,21,17.70
2014,08,25,09,22,17.70
2014,08,25,09,23,17.80
2014,08,25,09,24,17.90
2014,08,25,09,25,17.90
2014,08,25,09,26,18.00
2014,08,25,09,27,18.10
2014,08,25,09,28,18.20
2014,08,25,09,29,18.20
2014,08,25,09,30,18.30
2014,08,25,09,31,18.40
2014,08,25,09,32,18.40
2014,08,25,09,33,18.50
2014,08,25,09,34,18.60
2014,08,25,09,35,18.70
2014,08,25,09,36,18.80
2014,08,25,09,37,18.80
2014,08,25,09,38,18.90
2014,08,25,09,39,19.00
2014,08,25,09,40,19.00
2014,08,25,09,41,19.00
2014,08,25,09,42,19.10
2014,08,25,09,43,19.20
2014,08,25,09,44,19.20
2014,08,25,09,45,19.30
2014,08,25,09,46,19.40
2014,08,25,09,47,19.40
2014,08,25,09,48,19.50
2014,08,25,09,49,19.50
2014,08,25,09,50,19.60
2014,08,25,09,51,19.70
2014,08,25,09,52,19.70
2014,08,25,09,53,19.80
2014,08,25,09,54,19.80
2014,08,25,09,55,19.90
2014,08,25,09,56,19.90
2014,08,25,09,57,20.00
2014,08,25,09,58,20.00
2014,08,25,09,59,20.00
2014,08,25,10,00,20.10
2014,08,25,10,01,20.10
2014,08,25,10,02,20.20
2014,08,25,10,03,20.30
2014,08,25,10,04,20.40
2014,08,25,10,05,20.50
2014,08,25,10,06,20.60
2014,08,25,10,07,20.70
2014,08,25,10,08,20.80
2014,08,25,10,09,21.00
2014,08,25,10,10,21.10
2014,08,25,10,11,21.20
2014,08,25,10,12,21.20
2014,08,25,10,13,21.30
2014,08,25,10,14,21.30
2014,08,25,10,15,21.30
2014,08,25,10,16,21.40
2014,08,25,10,17,21.50
2014,08,25,10,18,21.50
2014,08,25,10,19,21.60
2014,08,25,10,20,21.70
2014,08,25,10,21,21.80
2014,08,25,10,22,21.90
2014,08,25,10,23,21.90
2014,08,25,10,24,22.00
2014,08,25,10,25,22.00
2014,08,25,10,26,22.10
2014,08,25,10,27,22.10
2014,08,25,10,28,22.10
2014,08,25,10,29,22.10
2014,08,25,10,30,22.10
2014,08,25,10,31,22.10
2014,08,25,10,32,22.10
2014,08,25,10,33,22.10
2014,08,25,10,34,22.10
2014,08,25,10,35,22.10
2014,08,25,10,36,22.10
2014,08,25,10,37,22.10
2014,08,25,10,38,22.10
2014,08,25,10,39,22.10
2014,08,25,10,40,22.10
2014,08,25,10,41,22.20
2014,08,25,10,42,22.20
2014,08,25,10,43,22.20
2014,08,25,10,44,22.20
2014,08,25,10,45,22.20
2014,08,25,10,46,22.30
2014,08,25,10,47,22.40
2014,08,25,10,48,22.50
2014,08,25,10,49,22.60
2014,08,25,10,50,22.70
2014,08,25,10,51,22.70
2014,08,25,10,52,22.80
2014,08,25,10,53,22.80
2014,08,25,10,54,22.80
2014,08,25,10,55,22.80
2014,08,25,10,56,22.90
2014,08,25,10,57,22.90
2014,08,25,10,58,22.90
2014,08,25,10,59,22.90
2014,08,25,11,00,22.90
2014,08,25,11,01,22.90
2014,08,25,11,02,22.80
2014,08,25,11,03,22.70
2014,08,25,11,04,22.70
2014,08,25,11,05,22.60
2014,08,25,11,06,22.50
2014,08,25,11,07,22.50
2014,08,25,11,08,22.50
2014,08,25,11,09,22.50
2014,08,25,11,10,22.50
2014,08,25,11,11,22.40
2014,08,25,11,12,22.40
2014,08,25,11,13,22.40
2014,08,25,11,14,22.50
2014,08,25,11,15,22.50
2014,08,25,11,16,22.60
2014,08,25,11,17,22.60
2014,08,25,11,18,22.60
2014,08,25,11,19,22.60
2014,08,25,11,20,22.60
2014,08,25,11,21,22.60
2014,08,25,11,22,22.70
2014,08,25,11,23,22.80
2014,08,25,11,24,22.80
2014,08,25,11,25,22.90
2014,08,25,11,26,22.90
2014,08,25,11,27,22.90
2014,08,25,11,28,23.00
2014,08,25,11,29,23.10
2014,08,25,11,30,23.20
2014,08,25,11,31,23.20
2014,08,25,11,32,23.20
2014,08,25,11,33,23.20
2014,08,25,11,34,23.30
2014,08,25,11,35,23.30
2014,08,25,11,36,23.30
2014,08,25,11,37,23.30
2014,08,25,11,38,23.30
2014,08,25,11,39,23.30
2014,08,25,11,40,23.20
2014,08,25,11,41,23.20
2014,08,25,11,42,23.20
2014,08,25,11,43,23.20
2014,08,25,11,44,23.30
2014,08,25,11,45,23.30
2014,08,25,11,46,23.30
2014,08,25,11,47,23.40
2014,08,25,11,48,23.40
2014,08,25,11,49,23.40
2014,08,25,11,50,23.40
2014,08,25,11,51,23.30
2014,08,25,11,52,23.20
2014,08,25,11,53,23.10
2014,08,25,11,54,23.10
2014,08,25,11,55,23.00
2014,08,25,11,56,23.10
2014,08,25,11,57,23.10
2014,08,25,11,58,23.20
2014,08,25,11,59,23.20
2014,08,25,12,00,23.20
2014,08,25,12,01,23.20
2014,08,25,12,02,23.20
2014,08,25,12,03,23.10
2014,08,25,12,04,23.00
2014,08,25,12,05,22.90
2014,08,25,12,06,22.90
2014,08,25,12,07,22.80
2014,08,25,12,08,22.80
2014,08,25,12,09,22.70
2014,08,25,12,10,22.70
2014,08,25,12,11,22.60
2014,08,25,12,12,22.50
2014,08,25,12,13,22.40
2014,08,25,12,14,22.40
2014,08,25,12,15,22.40
2014,08,25,12,16,22.40
2014,08,25,12,17,22.40
2014,08,25,12,18,22.40
2014,08,25,12,19,22.40
2014,08,25,12,20,22.40
2014,08,25,12,21,22.40
2014,08,25,12,22,22.40
2014,08,25,12,23,22.50
2014,08,25,12,24,22.50
2014,08,25,12,25,22.50
2014,08,25,12,26,22.60
2014,08,25,12,27,22.60
2014,08,25,12,28,22.60
2014,08,25,12,29,22.60
2014,08,25,12,30,22.60
2014,08,25,12,31,22.60
2014,08,25,12,32,22.60
2014,08,25,12,33,22.60
2014,08,25,12,34,22.60
2014,08,25,12,35,22.70
2014,08,25,12,36,22.70
2014,08,25,12,37,22.70
2014,08,25,12,38,22.70
2014,08,25,12,39,22.60
2014,08,25,12,40,22.60
2014,08,25,12,41,22.50
2014,08,25,12,42,22.50
2014,08,25,12,43,22.50
2014,08,25,12,44,22.30
2014,08,25,12,45,22.30
2014,08,25,12,46,22.10
2014,08,25,12,47,22.00
2014,08,25,12,48,21.80
2014,08,25,12,49,21.70
2014,08,25,12,50,21.60
2014,08,25,12,51,21.60
2014,08,25,12,52,21.60
2014,08,25,12,53,21.70
2014,08,25,12,54,21.80
2014,08,25,12,55,21.90
2014,08,25,12,56,22.00
2014,08,25,12,57,22.10
2014,08,25,12,58,22.20
2014,08,25,12,59,22.30
2014,08,25,13,00,22.30
2014,08,25,13,01,22.40
2014,08,25,13,02,22.40
2014,08,25,13,03,22.60
2014,08,25,13,04,22.60
2014,08,25,13,05,22.70
2014,08,25,13,06,22.70
2014,08,25,13,07,22.70
2014,08,25,13,08,22.70
2014,08,25,13,09,22.60
2014,08,25,13,10,22.60
2014,08,25,13,11,22.60
2014,08,25,13,12,22.60
2014,08,25,13,13,22.60
2014,08,25,13,14,22.60
2014,08,25,13,15,22.60
2014,08,25,13,16,22.60
2014,08,25,13,17,22.60
2014,08,25,13,18,22.60
2014,08,25,13,19,22.60
2014,08,25,13,20,22.60
2014,08,25,13,21,22.60
2014,08,25,13,22,22.60
2014,08,25,13,23,22.60
2014,08,25,13,24,22.60
2014,08,25,13,25,22.60
2014,08,25,13,26,22.60
2014,08,25,13,27,22.50
2014,08,25,13,28,22.50
2014,08,25,13,29,22.50
2014,08,25,13,30,22.40
2014,08,25,13,31,22.40
2014,08,25,13,32,22.40
2014,08,25,13,33,22.30
2014,08,25,13,34,22.30
2014,08,25,13,35,22.30
2014,08,25,13,36,22.40
2014,08,25,13,37,22.50
2014,08,25,13,38,22.50
2014,08,25,13,39,22.50
2014,08,25,13,40,22.50
2014,08,25,13,41,22.50
2014,08,25,13,42,22.50
2014,08,25,13,43,22.60
2014,08,25,13,44,22.60
2014,08,25,13,45,22.70
2014,08,25,13,46,22.70
2014,08,25,13,47,22.70
2014,08,25,13,48,22.70
2014,08,25,13,49,22.70
2014,08,25,13,50,22.70
2014,08,25,13,51,22.70
2014,08,25,13,52,22.70
2014,08,25,13,53,22.70
2014,08,25,13,54,22.70
2014,08,25,13,55,22.60
2014,08,25,13,56,22.70
2014,08,25,13,57,22.70
2014,08,25,13,58,22.80
2014,08,25,13,59,22.90
2014,08,25,14,00,23.00
2014,08,25,14,01,23.10
2014,08,25,14,02,23.20
2014,08,25,14,03,23.30
2014,08,25,14,04,23.30
2014,08,25,14,05,23.30
2014,08,25,14,06,23.30
2014,08,25,14,07,23.20
2014,08,25,14,08,23.10
2014,08,25,14,09,23.10
2014,08,25,14,10,23.20
2014,08,25,14,11,23.30
2014,08,25,14,12,23.50
2014,08,25,14,13,23.60
2014,08,25,14,14,23.70
2014,08,25,14,15,23.70
2014,08,25,14,16,23.50
2014,08,25,14,17,23.40
2014,08,25,14,18,23.40
2014,08,25,14,19,23.40
2014,08,25,14,20,23.30
2014,08,25,14,21,23.10
2014,08,25,14,22,22.90
2014,08,25,14,23,22.80
2014,08,25,14,24,22.80
2014,08,25,14,25,22.70
2014,08,25,14,26,22.60
2014,08,25,14,27,22.50
2014,08,25,14,28,22.40
2014,08,25,14,29,22.40
2014,08,25,14,30,22.30
2014,08,25,14,31,22.10
2014,08,25,14,32,21.90
2014,08,25,14,33,21.80
2014,08,25,14,34,21.80
2014,08,25,14,35,21.80
2014,08,25,14,36,21.70
2014,08,25,14,37,21.70
2014,08,25,14,38,21.80
2014,08,25,14,39,21.90
2014,08,25,14,40,22.00
2014,08,25,14,41,22.00
2014,08,25,14,42,22.00
2014,08,25,14,43,21.90
2014,08,25,14,44,21.80
2014,08,25,14,45,21.70
2014,08,25,14,46,21.60
2014,08,25,14,47,21.60
2014,08,25,14,48,21.50
2014,08,25,14,49,21.50
2014,08,25,14,50,21.40
2014,08,25,14,51,21.40
2014,08,25,14,52,21.50
2014,08,25,14,53,21.60
2014,08,25,14,54,21.70
2014,08,25,14,55,21.80
2014,08,25,14,56,21.90
2014,08,25,14,57,22.00
2014,08,25,14,58,22.10
2014,08,25,14,59,22.10
2014,08,25,15,00,22.10
2014,08,25,15,01,22.10
2014,08,25,15,02,22.20
2014,08,25,15,03,22.30
2014,08,25,15,04,22.30
2014,08,25,15,05,22.30
2014,08,25,15,06,22.30
2014,08,25,15,07,22.30
2014,08,25,15,08,22.40
2014,08,25,15,09,22.50
2014,08,25,15,10,22.60
2014,08,25,15,11,22.70
2014,08,25,15,12,22.80
2014,08,25,15,13,22.70
2014,08,25,15,14,22.70
2014,08,25,15,15,22.70
2014,08,25,15,16,22.80
2014,08,25,15,17,22.80
2014,08,25,15,18,22.90
2014,08,25,15,19,22.90
2014,08,25,15,20,23.00
2014,08,25,15,21,23.00
2014,08,25,15,22,23.00
2014,08,25,15,23,23.00
2014,08,25,15,24,22.90
2014,08,25,15,25,23.00
2014,08,25,15,26,23.00
2014,08,25,15,27,23.10
2014,08,25,15,28,23.20
2014,08,25,15,29,23.30
2014,08,25,15,30,23.40
2014,08,25,15,31,23.50
2014,08,25,15,32,23.70
2014,08,25,15,33,23.80
2014,08,25,15,34,23.90
2014,08,25,15,35,24.00
2014,08,25,15,36,24.10
2014,08,25,15,37,24.10
2014,08,25,15,38,24.20
2014,08,25,15,39,24.30
2014,08,25,15,40,24.40
2014,08,25,15,41,24.50
2014,08,25,15,42,24.70
2014,08,25,15,43,24.70
2014,08,25,15,44,24.80
2014,08,25,15,45,24.80
2014,08,25,15,46,24.80
2014,08,25,15,47,24.70
2014,08,25,15,48,24.60
2014,08,25,15,49,24.60
2014,08,25,15,50,24.60
2014,08,25,15,51,24.60
2014,08,25,15,52,24.50
2014,08,25,15,53,24.40
2014,08,25,15,54,24.40
2014,08,25,15,55,24.40
2014,08,25,15,56,24.50
2014,08,25,15,57,24.60
2014,08,25,15,58,24.70
2014,08,25,15,59,24.80
2014,08,25,16,00,24.80
2014,08,25,16,01,24.80
2014,08,25,16,02,24.80
2014,08,25,16,03,24.90
2014,08,25,16,04,25.00
2014,08,25,16,05,25.10
2014,08,25,16,06,25.10
2014,08,25,16,07,25.10
2014,08,25,16,08,25.00
2014,08,25,16,09,24.90
2014,08,25,16,10,24.90
2014,08,25,16,11,24.80
2014,08,25,16,12,24.70
2014,08,25,16,13,24.70
2014,08,25,16,14,24.60
2014,08,25,16,15,24.60
2014,08,25,16,16,24.50
2014,08,25,16,17,24.50
2014,08,25,16,18,24.40
2014,08,25,16,19,24.30
2014,08,25,16,20,24.20
2014,08,25,16,21,24.10
2014,08,25,16,22,23.90
2014,08,25,16,23,23.80
2014,08,25,16,24,23.70
2014,08,25,16,25,23.50
2014,08,25,16,26,23.30
2014,08,25,16,27,23.20
2014,08,25,16,28,23.10
2014,08,25,16,29,23.10
2014,08,25,16,30,23.10
2014,08,25,16,31,23.10
2014,08,25,16,32,23.00
2014,08,25,16,33,22.80
2014,08,25,16,34,22.60
2014,08,25,16,35,22.60
2014,08,25,16,36,22.60
2014,08,25,16,37,22.50
2014,08,25,16,38,22.40
2014,08,25,16,39,22.30
2014,08,25,16,40,22.30
2014,08,25,16,41,22.30
2014,08,25,16,42,22.30
2014,08,25,16,43,22.20
2014,08,25,16,44,22.20
2014,08,25,16,45,22.20
2014,08,25,16,46,22.20
2014,08,25,16,47,22.30
2014,08,25,16,48,22.30
2014,08,25,16,49,22.40
2014,08,25,16,50,22.40
2014,08,25,16,51,22.50
2014,08,25,16,52,22.50
2014,08,25,16,53,22.50
2014,08,25,16,54,22.60
2014,08,25,16,55,22.60
2014,08,25,16,56,22.70
2014,08,25,16,57,22.70
2014,08,25,16,58,22.80
2014,08,25,16,59,22.90
2014,08,25,17,00,22.90
2014,08,25,17,01,23.00
2014,08,25,17,02,23.10
2014,08,25,17,03,23.10
2014,08,25,17,04,23.20
2014,08,25,17,05,23.20
2014,08,25,17,06,23.20
2014,08,25,17,07,23.20
2014,08,25,17,08,23.30
2014,08,25,17,09,23.30
2014,08,25,17,10,23.30
2014,08,25,17,11,23.30
2014,08,25,17,12,23.30
2014,08,25,17,13,23.30
2014,08,25,17,14,23.30
2014,08,25,17,15,23.30
2014,08,25,17,16,23.30
2014,08,25,17,17,23.30
2014,08,25,17,18,23.30
2014,08,25,17,19,23.30